When you browse on this site, cookies collect data to enhance your experience and personalize the content and advertising you see.
Visit our Privacy Policy to learn more. By continuing to use the site, you agree to this use of cookies and data.
  • în România
  • Lista ţărilor
  • Pe 7 zile
  • Temperatura apei
  • Meteo pe hartă
  • Widget-uri
  • user-avatar
    Intrare

    Meteo pe oră la Aci Bonaccorsi

    Astăzi, 25 Ianuarie, Sâmbătă

    Timp Temperatura Precipitaţii Vânt Presiune Umiditate
    00:00 +9°C° 0 mm 3 m/s 742 mmHg 85%
    01:00 +9°C° 0 mm 3 m/s 741 mmHg 84%
    02:00 +9°C° 0 mm 3 m/s 741 mmHg 84%
    03:00 +9°C° 0 mm 3 m/s 741 mmHg 83%
    04:00 +9°C° 0 mm 3 m/s 741 mmHg 83%
    05:00 +8°C° 0 mm 3 m/s 741 mmHg 82%
    06:00 +8°C° 0 mm 2 m/s 741 mmHg 81%
    07:00 +9°C° 0 mm 2 m/s 741 mmHg 84%
    08:00 +10°C° 0 mm 2 m/s 741 mmHg 81%
    09:00 +12°C° 0 mm 2 m/s 741 mmHg 78%
    10:00 +13°C° 0 mm 2 m/s 741 mmHg 75%
    11:00 +14°C° 0 mm 2 m/s 741 mmHg 73%
    12:00 +15°C° 0 mm 2 m/s 741 mmHg 71%
    13:00 +15°C° 0 mm 2 m/s 740 mmHg 69%
    14:00 +15°C° 0 mm 2 m/s 740 mmHg 72%
    15:00 +15°C° 0 mm 2 m/s 740 mmHg 75%
    16:00 +14°C° 0 mm 2 m/s 739 mmHg 78%
    17:00 +13°C° 0 mm 2 m/s 739 mmHg 82%
    18:00 +12°C° 0 mm 2 m/s 739 mmHg 86%
    19:00 +12°C° 0 mm 2 m/s 739 mmHg 90%
    20:00 +12°C° 0 mm 2 m/s 739 mmHg 91%
    21:00 +12°C° 0 mm 2 m/s 739 mmHg 92%
    22:00 +12°C° 0 mm 2 m/s 739 mmHg 93%
    23:00 +10°C° 0 mm 2 m/s 739 mmHg 92%

    Mâine, 26 Ianuarie, Duminică

    Timp Temperatura Precipitaţii Vânt Presiune Umiditate
    00:00 +11°C° 0 mm 1 m/s 739 mmHg 92%
    01:00 +11°C° 0 mm 1 m/s 739 mmHg 91%
    02:00 +11°C° 0 mm 1 m/s 738 mmHg 91%
    03:00 +11°C° 0 mm 1 m/s 738 mmHg 91%
    04:00 +11°C° 0 mm 1 m/s 737 mmHg 90%
    05:00 +11°C° 0 mm 1 m/s 737 mmHg 87%
    06:00 +10°C° 0 mm 1 m/s 738 mmHg 83%
    07:00 +10°C° 0 mm 1 m/s 738 mmHg 80%
    08:00 +12°C° 0 mm 1 m/s 738 mmHg 75%
    09:00 +13°C° 0 mm 1 m/s 738 mmHg 70%
    10:00 +15°C° 0 mm 1 m/s 738 mmHg 65%
    11:00 +15°C° 0 mm 1 m/s 738 mmHg 62%
    12:00 +16°C° 0 mm 2 m/s 738 mmHg 59%
    13:00 +17°C° 0 mm 2 m/s 737 mmHg 56%
    14:00 +16°C° 0 mm 2 m/s 737 mmHg 60%
    15:00 +16°C° 0 mm 1 m/s 737 mmHg 63%
    16:00 +16°C° 0 mm 1 m/s 737 mmHg 67%
    17:00 +15°C° 0.1 mm 1 m/s 737 mmHg 71%
    18:00 +14°C° 0.1 mm 1 m/s 737 mmHg 75%
    19:00 +13°C° 0.1 mm 2 m/s 737 mmHg 79%
    20:00 +12°C° 0.5 mm 2 m/s 737 mmHg 81%
    21:00 +12°C° 0.5 mm 2 m/s 737 mmHg 83%
    22:00 +12°C° 0.5 mm 2 m/s 737 mmHg 84%
    23:00 +10°C° 0.1 mm 2 m/s 737 mmHg 85%

    Poimâine, 27 Ianuarie, Luni

    Timp Temperatura Precipitaţii Vânt Presiune Umiditate
    00:00 +10°C° 0.1 mm 2 m/s 737 mmHg 85%
    01:00 +10°C° 0.1 mm 2 m/s 736 mmHg 85%
    02:00 +10°C° 0.4 mm 2 m/s 736 mmHg 86%
    03:00 +10°C° 0.4 mm 2 m/s 736 mmHg 87%
    04:00 +10°C° 0.4 mm 2 m/s 735 mmHg 87%
    05:00 +9°C° 0.1 mm 2 m/s 735 mmHg 87%
    06:00 +9°C° 0.1 mm 2 m/s 735 mmHg 87%
    07:00 +9°C° 0.1 mm 2 m/s 735 mmHg 87%
    08:00 +10°C° 0 mm 2 m/s 736 mmHg 81%
    09:00 +12°C° 0 mm 2 m/s 736 mmHg 75%
    10:00 +13°C° 0 mm 2 m/s 737 mmHg 69%
    11:00 +14°C° 0 mm 2 m/s 737 mmHg 64%
    12:00 +15°C° 0 mm 2 m/s 737 mmHg 59%
    13:00 +16°C° 0 mm 2 m/s 737 mmHg 55%
    14:00 +15°C° 0 mm 2 m/s 737 mmHg 57%
    15:00 +15°C° 0 mm 2 m/s 737 mmHg 60%
    16:00 +14°C° 0 mm 2 m/s 737 mmHg 63%
    17:00 +13°C° 0 mm 2 m/s 737 mmHg 67%
    18:00 +10°C° 0 mm 2 m/s 737 mmHg 72%
    19:00 +9°C° 0 mm 2 m/s 737 mmHg 76%
    20:00 +9°C° 0 mm 2 m/s 737 mmHg 74%
    21:00 +8°C° 0 mm 2 m/s 738 mmHg 71%
    22:00 +8°C° 0 mm 2 m/s 738 mmHg 68%
    23:00 +8°C° 0 mm 2 m/s 738 mmHg 65%

    28 Ianuarie, Marţi

    Timp Temperatura Precipitaţii Vânt Presiune Umiditate
    00:00 +8°C° 0 mm 2 m/s 738 mmHg 62%
    01:00 +8°C° 0 mm 2 m/s 738 mmHg 59%
    02:00 +8°C° 0 mm 2 m/s 737 mmHg 59%
    03:00 +8°C° 0 mm 2 m/s 737 mmHg 58%
    04:00 +8°C° 0 mm 2 m/s 737 mmHg 58%
    05:00 +8°C° 0 mm 2 m/s 737 mmHg 58%
    06:00 +7°C° 0 mm 2 m/s 737 mmHg 57%
    07:00 +7°C° 0 mm 2 m/s 737 mmHg 57%
    08:00 +9°C° 0 mm 2 m/s 737 mmHg 55%
    09:00 +12°C° 0 mm 2 m/s 738 mmHg 53%
    10:00 +13°C° 0 mm 2 m/s 738 mmHg 51%
    11:00 +14°C° 0 mm 2 m/s 738 mmHg 51%
    12:00 +15°C° 0 mm 2 m/s 737 mmHg 50%
    13:00 +16°C° 0 mm 3 m/s 737 mmHg 49%
    14:00 +14°C° 0 mm 3 m/s 737 mmHg 53%
    15:00 +14°C° 0 mm 3 m/s 737 mmHg 58%
    16:00 +13°C° 0 mm 3 m/s 737 mmHg 62%
    17:00 +12°C° 0 mm 3 m/s 737 mmHg 67%
    18:00 +12°C° 0 mm 2 m/s 737 mmHg 72%
    19:00 +10°C° 0 mm 2 m/s 737 mmHg 77%
    20:00 +9°C° 0 mm 2 m/s 737 mmHg 77%
    21:00 +9°C° 0 mm 2 m/s 737 mmHg 78%
    22:00 +9°C° 0 mm 3 m/s 737 mmHg 78%
    23:00 +9°C° 0 mm 3 m/s 737 mmHg 77%

    29 Ianuarie, Miercuri

    Timp Temperatura Precipitaţii Vânt Presiune Umiditate
    00:00 +9°C° 0 mm 3 m/s 737 mmHg 77%
    01:00 +9°C° 0 mm 3 m/s 737 mmHg 76%
    02:00 +8°C° 0 mm 4 m/s 737 mmHg 76%
    03:00 +8°C° 0 mm 4 m/s 736 mmHg 77%
    04:00 +8°C° 0 mm 4 m/s 736 mmHg 77%
    05:00 +8°C° 0 mm 4 m/s 736 mmHg 77%
    06:00 +8°C° 0 mm 4 m/s 736 mmHg 78%
    07:00 +8°C° 0 mm 4 m/s 737 mmHg 79%
    08:00 +11°C° 0 mm 4 m/s 737 mmHg 75%
    09:00 +13°C° 0 mm 4 m/s 737 mmHg 70%
    10:00 +14°C° 0 mm 4 m/s 737 mmHg 66%
    11:00 +15°C° 0 mm 4 m/s 737 mmHg 64%
    12:00 +17°C° 0 mm 4 m/s 737 mmHg 62%
    13:00 +17°C° 0 mm 4 m/s 736 mmHg 61%
    14:00 +16°C° 0 mm 5 m/s 736 mmHg 63%
    15:00 +15°C° 0 mm 5 m/s 736 mmHg 66%
    16:00 +15°C° 0 mm 5 m/s 736 mmHg 69%
    17:00 +14°C° 0 mm 5 m/s 736 mmHg 72%
    18:00 +13°C° 0 mm 4 m/s 736 mmHg 76%
    19:00 +11°C° 0 mm 4 m/s 736 mmHg 79%
    20:00 +11°C° 0 mm 4 m/s 736 mmHg 79%
    21:00 +11°C° 0 mm 4 m/s 736 mmHg 79%
    22:00 +11°C° 0 mm 4 m/s 736 mmHg 79%
    23:00 +11°C° 0 mm 4 m/s 736 mmHg 80%

    30 Ianuarie, Joi

    Timp Temperatura Precipitaţii Vânt Presiune Umiditate
    00:00 +11°C° 0 mm 4 m/s 736 mmHg 81%
    01:00 +11°C° 0 mm 4 m/s 736 mmHg 82%
    02:00 +10°C° 0 mm 4 m/s 736 mmHg 83%
    03:00 +10°C° 0 mm 4 m/s 736 mmHg 84%
    04:00 +10°C° 0 mm 4 m/s 736 mmHg 85%
    05:00 +9°C° 0 mm 3 m/s 736 mmHg 83%
    06:00 +9°C° 0 mm 3 m/s 736 mmHg 81%
    07:00 +9°C° 0 mm 3 m/s 736 mmHg 79%
    08:00 +10°C° 0 mm 3 m/s 737 mmHg 74%
    09:00 +12°C° 0 mm 2 m/s 737 mmHg 68%
    10:00 +14°C° 0 mm 2 m/s 738 mmHg 63%
    11:00 +14°C° 0 mm 2 m/s 738 mmHg 61%
    12:00 +15°C° 0 mm 2 m/s 738 mmHg 59%
    13:00 +15°C° 0 mm 2 m/s 738 mmHg 57%
    14:00 +15°C° 0 mm 2 m/s 738 mmHg 60%
    15:00 +13°C° 0 mm 3 m/s 738 mmHg 63%
    16:00 +12°C° 0 mm 3 m/s 738 mmHg 66%
    17:00 +12°C° 0 mm 3 m/s 738 mmHg 68%
    18:00 +11°C° 0 mm 3 m/s 738 mmHg 71%
    19:00 +10°C° 0 mm 2 m/s 739 mmHg 73%
    20:00 +10°C° 0 mm 2 m/s 739 mmHg 75%
    21:00 +9°C° 0 mm 2 m/s 739 mmHg 77%
    22:00 +10°C° 0 mm 1 m/s 739 mmHg 79%
    23:00 +10°C° 0 mm 1 m/s 739 mmHg 79%
    Arată mai mult